RH
6 6 6 5 5 5 5 7 7 8 8 9 8 16 24 20 23 24 22 22 23 23 21 22 25 24 25 25 22 24 24 37 37 27 30 30 31 33 37 36 38 42 43 48
9 6 7 7 6 6 6 6 5 5 6 8 9 10 12 18 24 26 24 24 23 24 23 23 22 22 21 24 28 26 26 30 42 28 29 25 25 26 32 34 30 41 32 42
24 42 45 33 18 9 8 9 10 7 6 6 6 8 13 24 26 25 27 28 28 26 24 23 22 23 24 26 24 26 31 29 26 28 23 24 27 24 25 29 32 27 27 24
1 1 1 9 46 58 40 22 22 12 8 6 12 15 11 9 14 17 19 26 28 28 27 25 24 25 25 26 27 25 30 29 28 24 26 28 30 27 22 23 25 25 19 19
1 1 1 1 1 5 39 71 50 36 17 10 7 7 7 7 10 17 18 16 30 32 31 29 28 27 27 29 28 30 31 30 29 27 28 30 30 31 32 28 23 24 24 21
1 2 2 2 2 2 4 37 87 94 55 31 14 8 6 7 9 14 18 20 29 32 32 33 31 30 30 29 30 32 34 35 35 35 33 35 35 29 29 26 24 27 30 26
4 3 3 4 4 3 4 28 91 100 98 90 44 20 13 8 8 16 20 23 22 21 31 35 35 34 33 32 32 32 34 38 41 39 38 48 32 29 27 28 26 28 27 29
7 7 6 5 5 4 4 7 94 100 98 100 100 80 40 14 9 10 10 20 26 24 30 39 40 39 37 35 36 36 37 40 44 45 48 35 32 31 31 31 31 34 33 28
8 9 9 8 6 6 4 4 22 99 98 87 100 99 98 60 26 10 11 15 29 28 34 42 48 40 37 40 41 40 42 45 49 51 51 45 40 38 36 35 40 36 34 33
10 10 10 11 10 7 6 5 12 66 97 95 100 100 100 98 88 41 19 14 16 28 35 47 50 44 38 39 39 43 45 50 50 53 54 42 43 43 44 46 43 42 39 39
9 13 14 13 11 9 8 22 20 40 25 32 100 99 98 91 98 97 51 27 19 36 45 47 49 44 38 39 38 39 42 44 47 52 58 57 49 52 52 50 48 47 43 47
63 60 100 99 38 28 48 68 83 80 80 10 54 100 98 98 98 99 89 45 37 28 32 38 40 41 38 36 40 36 44 44 43 44 47 52 55 58 62 71 55 50 50 53
87 95 94 88 81 78 85 78 63 79 83 52 39 7 85 97 98 98 97 76 62 53 53 45 43 40 39 38 38 40 39 43 50 49 50 58 61 59 62 75 61 67 80 95
76 86 84 81 84 86 92 98 82 100 100 98 34 27 23 57 97 98 98 99 85 58 52 60 54 48 46 44 40 41 42 49 54 55 59 61 58 56 64 72 80 76 88 96
73 79 82 82 83 88 100 100 97 100 100 96 60 62 27 22 80 96 89 95 98 93 76 71 68 63 57 51 49 48 44 45 50 50 57 61 57 62 57 69 82 92 92 97
76 81 86 79 80 91 100 96 82 74 86 100 86 64 65 63 64 76 98 98 98 97 75 73 79 69 67 62 60 44 41 48 54 51 51 60 54 62 64 85 98 97 100 99
82 86 86 82 83 100 98 96 75 86 94 100 99 100 61 43 29 86 93 98 98 98 96 84 75 83 79 70 64 59 52 51 56 53 64 62 60 68 81 99 99 100 98 94
85 74 70 75 84 96 91 52 66 100 99 99 99 98 98 85 44 63 95 98 98 98 97 96 100 98 95 88 67 70 68 64 69 68 77 63 64 74 95 100 98 96 89 75
76 71 78 73 69 70 80 98 98 99 97 98 95 92 94 89 70 58 61 98 98 97 97 97 100 100 98 79 76 69 57 60 61 75 74 68 68 92 99 97 94 82 62 43
76 91 93 89 95 96 97 97 97 96 96 96 94 78 96 80 60 83 100 97 97 97 95 96 96 90 85 78 81 79 75 77 78 78 71 69 90 99 95 86 66 41 38 37
92 95 84 87 97 97 96 97 95 96 95 92 77 79 90 85 71 58 97 97 97 97 96 96 97 96 99 92 88 89 92 92 94 96 93 94 97 89 67 43 24 24 20 15
96 98 92 86 96 96 96 96 96 89 90 81 86 68 76 95 75 80 77 97 93 96 89 99 90 75 78 86 98 100 95 100 98 97 97 94 82 60 31 20 25 18 14 12
96 97 98 93 95 96 96 95 97 99 84 82 96 100 100 100 96 96 96 96 94 87 99 90 75 78 86 96 99 100 100 97 97 97 89 66 52 25 34 23 12 12 11 10
96 97 97 95 90 99 96 93 99 100 86 76 80 94 99 95 98 94 96 96 95 91 80 78 76 75 79 88 100 97 96 96 96 93 80 42 57 39 13 12 10 10 10 9
97 97 97 97 98 99 94 83 92 96 97 98 97 98 90 96 92 87 92 92 95 90 70 68 69 78 85 99 97 96 96 95 94 76 79 43 15 12 10 9 9 9 12 15
97 96 98 100 100 100 99 94 95 95 97 98 97 96 96 88 94 94 90 93 75 70 71 66 68 87 98 96 97 96 96 95 90 43 17 14 12 11 9 9 10 13 16 19
97 97 98 98 97 97 98 96 97 97 98 95 97 95 95 95 95 95 87 84 69 67 73 76 82 96 96 96 95 95 93 56 20 17 14 12 11 9 10 11 14 18 21 23
Wind_Speed
43 41 42 42 39 37 34 33 32 28 29 27 24 16 14 18 15 14 13 11 10 8 9 9 7 6 6 8 7 4 4 5 5 8 9 11 12 12 14 7 3 4 3 6
50 46 46 45 44 41 38 35 35 33 31 25 21 24 26 22 16 12 10 12 15 13 11 6 8 8 8 8 7 5 4 3 4 3 6 11 11 13 14 12 9 8 4 3
48 51 49 47 46 46 42 39 35 31 34 33 30 25 20 12 11 12 15 17 16 16 16 12 9 9 7 7 7 7 8 7 8 6 6 7 7 9 12 12 5 5 10 11
46 46 45 46 46 44 44 42 39 37 30 28 18 19 24 29 25 22 19 21 16 15 17 14 15 10 9 9 9 9 7 9 11 10 13 15 15 14 13 15 15 7 7 8
45 45 44 42 41 40 42 41 42 39 41 38 37 36 35 33 27 22 23 21 17 17 19 17 20 18 14 11 9 9 10 10 12 17 15 16 19 17 19 20 19 19 16 11
41 42 42 36 35 37 38 39 41 39 48 43 42 44 41 36 32 27 24 18 17 17 15 18 20 20 18 17 17 16 15 11 8 7 9 12 17 11 20 20 19 13 17 14
36 35 35 33 27 32 38 37 34 35 49 48 49 46 39 38 35 30 28 25 24 23 19 18 19 21 22 22 21 21 20 15 10 10 11 4 7 8 7 13 15 14 12 12
36 35 33 31 30 30 36 39 36 39 50 49 49 50 47 44 41 40 36 31 27 25 23 20 18 20 21 26 26 26 23 18 8 5 5 14 14 12 10 9 13 13 14 13
36 36 35 33 31 30 37 39 39 38 49 58 50 48 50 50 45 43 40 34 29 26 25 22 17 11 10 8 6 11 11 13 13 6 4 4 4 5 8 10 16 10 12 13
41 37 36 36 34 33 37 41 40 49 55 55 46 45 43 45 46 46 38 37 38 33 31 29 25 21 18 12 16 13 14 15 17 16 8 11 15 14 11 5 9 8 9 12
41 39 37 36 36 34 36 40 38 43 53 67 48 39 37 44 47 45 39 36 42 33 33 32 25 23 25 23 25 21 18 13 13 10 8 9 6 10 12 16 15 11 10 12
36 34 31 33 32 32 31 39 36 38 45 64 50 54 51 42 38 37 38 43 29 28 32 35 26 22 22 27 23 27 27 26 19 18 12 14 17 21 22 22 19 8 9 11
35 35 35 33 32 31 34 38 39 39 46 55 62 71 54 43 41 43 51 43 43 31 22 26 24 21 21 28 33 26 26 26 26 21 19 17 16 17 21 21 20 15 16 18
38 39 38 37 35 36 37 41 40 41 45 52 62 55 56 65 46 42 46 55 55 49 45 39 37 31 28 29 27 26 28 26 27 26 22 19 19 19 19 26 30 36 32 25
41 41 42 42 42 41 44 48 47 48 49 44 51 48 55 56 56 41 50 53 52 47 47 46 44 39 33 32 33 36 35 35 33 31 26 25 23 20 27 31 31 36 34 30
43 44 45 45 45 46 50 59 59 56 56 57 65 65 64 52 40 53 35 44 58 55 54 53 50 45 33 26 41 42 39 37 33 33 31 26 22 25 34 31 32 30 31 26
45 46 45 46 50 53 61 70 71 61 51 54 62 60 67 63 51 48 45 53 52 60 60 64 54 39 39 42 42 26 30 33 33 30 26 27 30 32 29 32 29 25 24 22
46 46 49 55 62 59 60 59 57 63 64 53 59 58 51 45 45 54 37 47 60 58 53 57 50 42 41 44 48 46 40 34 30 32 29 26 29 29 29 27 25 23 18 14
47 47 54 48 38 48 56 53 56 59 68 57 49 59 54 45 41 42 54 46 53 47 54 53 46 49 44 49 41 41 41 36 31 28 27 25 27 26 26 24 19 14 13 15
44 44 41 33 28 17 4 10 31 52 69 57 48 45 55 46 41 40 43 39 42 36 43 50 51 48 52 38 32 33 32 30 28 24 25 26 25 26 21 15 12 13 16 20
40 48 41 26 24 21 4 5 21 22 28 48 59 58 48 51 51 45 38 26 30 31 31 41 33 49 50 49 48 42 28 24 23 23 24 24 21 17 13 13 14 17 19 18
43 46 28 21 16 6 5 5 10 15 22 21 58 61 54 49 50 47 53 27 17 11 31 28 30 46 47 48 48 36 34 31 28 27 26 23 18 14 14 14 16 17 17 16
39 20 10 7 8 5 4 4 5 9 29 23 36 45 48 45 53 15 20 17 15 21 25 21 34 37 34 34 35 35 33 33 31 29 24 19 15 14 15 15 14 14 14 16
31 12 9 5 6 7 7 12 15 15 22 34 25 41 37 37 34 23 7 11 18 17 18 25 27 35 30 30 31 34 37 34 28 25 20 16 14 14 12 10 10 12 16 18
15 8 6 6 10 17 20 18 22 22 17 12 35 42 45 22 24 19 7 12 9 16 21 22 25 31 32 33 37 37 36 32 26 20 15 14 13 10 8 8 11 13 14 17
5 6 6 7 8 7 6 10 12 21 21 26 38 24 24 23 14 14 11 14 9 17 24 24 28 33 36 38 38 35 29 24 18 16 15 13 11 7 7 8 11 13 15 18
3 5 8 9 9 13 13 3 8 26 38 37 19 9 12 16 11 16 18 14 15 18 24 31 34 39 40 38 34 28 22 18 18 16 15 11 8 6 7 9 12 14 17 21
Wind_Direction
274 275 278 280 282 284 287 289 293 295 299 305 307 301 298 308 303 306 301 304 298 298 311 311 305 299 302 313 309 289 289 277 249 228 217 217 219 220 217 231 241 232 272 265
274 273 274 275 277 277 279 280 281 283 285 288 289 290 294 291 290 294 292 295 298 298 295 300 290 302 313 313 309 316 310 265 293 273 255 247 247 243 239 240 247 230 249 249
273 273 270 270 272 273 274 277 279 276 279 278 279 281 276 275 282 296 294 295 293 293 291 283 272 291 296 305 294 301 315 283 258 270 287 284 254 253 240 225 223 228 239 276
281 277 275 272 267 268 268 267 269 269 265 267 257 259 268 275 281 284 285 289 297 292 282 286 287 280 275 287 281 269 291 297 292 284 287 283 273 262 251 239 236 237 261 267
284 281 278 277 274 267 263 262 262 260 262 261 261 264 266 268 273 269 279 278 288 276 277 283 282 286 285 282 275 267 271 279 290 289 286 284 286 273 254 243 241 246 252 260
284 284 284 281 272 268 263 257 258 259 258 256 256 258 262 265 267 271 270 268 266 272 279 271 269 272 275 273 276 274 274 276 290 276 284 298 291 284 255 253 250 255 251 249
288 282 281 280 271 262 258 253 245 257 258 258 253 254 257 259 263 261 260 263 262 271 271 271 273 273 273 270 268 267 267 269 271 278 287 253 278 312 287 238 239 254 257 251
290 289 285 277 273 261 255 252 239 245 255 259 259 254 252 254 253 255 257 258 259 261 262 266 268 274 275 271 264 261 260 255 249 251 246 283 288 286 274 268 260 266 254 241
289 288 286 281 272 262 256 252 241 243 251 253 257 260 257 253 254 254 252 250 251 251 253 249 240 232 249 249 242 238 232 239 220 243 239 267 302 315 304 291 280 269 243 231
292 286 281 279 274 265 258 253 245 233 243 248 247 251 257 258 255 255 256 252 248 249 246 242 235 237 232 232 241 233 220 222 223 234 249 272 282 296 296 254 287 284 244 222
288 286 283 275 272 265 257 257 249 245 245 243 236 241 247 254 249 250 250 250 243 237 231 231 233 231 232 230 238 242 238 222 217 217 217 257 273 313 306 298 282 280 238 205
290 286 282 277 269 264 258 261 256 252 250 249 246 242 233 234 236 247 247 246 246 239 234 231 230 227 227 235 232 238 231 230 231 224 235 246 268 285 294 294 273 218 201 211
288 285 281 275 268 262 259 261 260 261 260 259 255 245 235 235 231 226 231 232 226 227 228 234 233 226 232 228 235 237 241 240 232 236 237 248 272 292 293 269 241 225 228 234
286 284 280 274 266 262 258 257 255 258 261 262 261 252 255 235 231 220 230 240 232 236 242 244 242 239 240 238 239 241 240 233 236 238 238 261 283 296 284 260 255 243 248 255
287 285 281 274 268 265 261 259 256 255 251 255 261 266 260 247 233 234 236 237 237 230 234 233 235 235 236 239 240 236 238 243 238 246 254 265 283 287 297 282 278 259 257 260
287 284 281 278 273 269 269 271 259 253 252 251 256 257 256 252 244 242 229 233 232 225 231 233 236 235 233 237 239 246 246 248 246 253 260 264 279 295 290 272 270 262 257 246
288 287 286 280 277 275 270 266 265 263 257 251 248 252 252 256 247 229 240 227 231 233 224 230 233 236 235 238 242 239 242 241 244 247 252 260 278 286 273 269 260 243 242 252
292 291 291 286 287 276 265 262 256 248 247 238 228 240 243 246 249 232 235 249 228 227 223 227 225 227 229 237 242 244 243 243 235 250 255 268 278 268 262 252 241 245 250 259
296 300 299 294 291 283 277 268 257 239 221 210 221 225 230 233 233 240 234 235 224 222 216 218 221 221 224 235 240 243 249 252 255 250 259 265 268 256 243 241 241 247 255 261
303 307 307 301 311 301 314 187 211 207 206 211 217 231 221 224 221 229 229 217 210 211 217 218 219 226 233 233 235 237 242 246 246 242 257 264 249 241 234 232 237 244 252 260
306 313 309 278 303 315 354 114 159 181 193 209 220 223 219 217 216 215 208 200 200 201 201 200 209 225 228 232 235 237 227 231 242 240 246 240 227 218 218 225 233 248 257 263
310 313 300 293 297 292 323 153 184 186 193 201 212 219 217 210 209 215 225 224 196 193 197 196 220 228 231 233 236 229 237 234 232 225 227 211 200 201 213 229 246 254 262 272
316 313 267 258 269 277 284 242 179 197 205 208 201 195 195 198 204 211 172 176 178 194 177 197 221 222 221 218 223 225 222 211 209 203 189 187 193 205 228 242 250 260 274 284
323 282 270 253 251 256 254 246 219 191 196 210 216 199 189 197 197 229 163 146 152 173 194 203 212 213 209 199 199 203 199 195 178 175 174 182 206 224 227 238 255 274 284 290
299 287 293 326 313 304 297 285 250 243 221 224 192 191 195 179 188 216 127 161 184 191 203 195 192 188 187 184 188 192 186 171 164 167 180 197 200 205 223 258 276 285 290 296
310 334 321 328 321 334 300 290 251 220 207 192 173 179 198 214 216 184 179 175 175 198 194 190 178 171 176 182 181 169 158 156 160 175 182 183 191 217 255 282 291 293 297 305
8 64 46 45 46 41 53 84 204 180 174 178 204 175 162 151 176 167 169 182 177 172 166 164 169 170 174 165 152 149 148 162 174 177 178 189 212 248 279 292 297 298 306 313